Teterboro, NJ

4:15 PM EST on February 20, 2017 (GMT -0500)
Teterboro

Weather History for KTEB - May, 2014

Change the Weather History Date:

Saturday, May 17, 2014

  Actual Average Record
Temperature  
Mean Temperature 63 °F -  
Max Temperature 71 °F 69 °F 84 °F (2015)
Min Temperature 55 °F 49 °F 44 °F (1997)
Degree Days  
Heating Degree Days 2    
Growing Degree Days 13 (Base 50)    
Moisture  
Dew Point 46 °F    
Average Humidity 56    
Maximum Humidity 81    
Minimum Humidity 34    
Precipitation  
Precipitation 0.00 in - - ()
Sea Level Pressure  
Sea Level Pressure 30.00 in    
Wind  
Wind Speed 7 mph (WNW)    
Max Wind Speed 16 mph    
Max Gust Speed 22 mph    
Visibility 10 miles    
Events      
Averages and records for this station are not official NWS values.
T = Trace of Precipitation, MM = Missing Value Source: NWS Daily Summary

Daily Weather History Graph

Daily Weather History Graph

Search for Another Location

Airport or City:

Trip Planner

Search our weather history database for the weather conditions in past years. The results will help you decide how hot, cold, wet, or windy it might be!

Date:

Astronomy

May. 17, 2014 Rise Set
Actual Time 5:37 AM EDT 8:08 PM EDT
Civil Twilight 5:05 AM EDT 8:40 PM EDT
Nautical Twilight 4:26 AM EDT 9:19 PM EDT
Astronomical Twilight 3:42 AM EDT 10:03 PM EDT
Moon 11:07 PM EDT (5/17) 8:17 AM EDT (5/17)
Length of Visible Light 15h 34m
Length of Day
14h 31m
Waning Gibbous, 89% of the Moon is Illuminated
May 17
Waning Gibbous
May 21
Last Quarter
May 28
New
Jun 5
First Quarter
Jun 13
Full

Hourly Weather History & Observations

Time (EDT) Temp. Dew Point Humidity Pressure Visibility Wind Dir Wind Speed Gust Speed Precip Events Conditions
12:20 AM 62.6 °F 55.4 °F 77% 29.85 in 10.0 mi West 8.1 mph - N/A   Overcast
12:51 AM 61.0 °F 55.0 °F 81% 29.86 in 10.0 mi West 5.8 mph - N/A   Overcast
1:51 AM 60.1 °F 54.0 °F 80% 29.84 in 10.0 mi NW 4.6 mph - N/A   Mostly Cloudy
2:51 AM 59.0 °F 52.0 °F 78% 29.86 in 10.0 mi NW 8.1 mph - N/A   Mostly Cloudy
3:51 AM 57.0 °F 50.0 °F 77% 29.90 in 10.0 mi NW 6.9 mph - N/A   Clear
4:51 AM 55.9 °F 48.9 °F 77% 29.90 in 10.0 mi NW 5.8 mph - N/A   Clear
5:51 AM 55.0 °F 48.9 °F 80% 29.93 in 10.0 mi WNW 6.9 mph - N/A   Clear
6:51 AM 57.0 °F 48.0 °F 72% 29.96 in 10.0 mi NNW 4.6 mph - N/A   Clear
7:51 AM 57.9 °F 48.0 °F 70% 29.98 in 10.0 mi NW 6.9 mph - N/A   Clear
8:51 AM 60.1 °F 46.9 °F 62% 29.99 in 10.0 mi NNW 8.1 mph - N/A   Clear
9:51 AM 62.6 °F 46.4 °F 55% 30.01 in 10.0 mi Calm Calm - N/A   Clear
10:51 AM 64.9 °F 46.0 °F 50% 30.04 in 10.0 mi West 6.9 mph - N/A   Clear
11:51 AM 68.0 °F 46.0 °F 45% 30.04 in 10.0 mi West 9.2 mph - N/A   Clear
12:51 PM 68.0 °F 45.0 °F 43% 30.04 in 10.0 mi West 9.2 mph - N/A   Clear
1:51 PM 69.1 °F 45.0 °F 42% 30.04 in 10.0 mi Variable 5.8 mph 19.6 mph N/A   Scattered Clouds
2:51 PM 71.1 °F 44.1 °F 38% 30.05 in 10.0 mi SW 16.1 mph 21.9 mph N/A   Mostly Cloudy
3:51 PM 70.0 °F 44.1 °F 39% 30.05 in 10.0 mi West 11.5 mph 18.4 mph N/A   Partly Cloudy
4:51 PM 71.1 °F 41.0 °F 34% 30.05 in 10.0 mi West 10.4 mph - N/A   Partly Cloudy
5:51 PM 69.8 °F 42.8 °F 38% 30.02 in 10.0 mi WNW 11.5 mph - N/A   Clear
6:51 PM 68.0 °F 39.9 °F 36% 30.06 in 10.0 mi West 8.1 mph - N/A   Clear
7:51 PM 66.9 °F 39.9 °F 37% 30.07 in 10.0 mi West 9.2 mph - N/A   Clear
8:51 PM 64.9 °F 41.0 °F 42% 30.10 in 10.0 mi WSW 5.8 mph - N/A   Clear
9:51 PM 64.0 °F 39.9 °F 41% 30.10 in 10.0 mi West 8.1 mph - N/A   Clear
10:51 PM 62.1 °F 39.9 °F 44% 30.12 in 10.0 mi West 4.6 mph - N/A   Partly Cloudy
11:51 PM 60.1 °F 42.1 °F 51% 30.13 in 10.0 mi WNW 3.5 mph - N/A   Overcast